QPF
0.03 0.03 0.04 0.04 0.04 0.04 0.03 0.04 0.05 0.06 0.07 0.05 0.05 0.04 0.04 0.02 0.01 0.01 0.01 0.01 0.01 0.01 0.01 0.01 0.01 0.00 0.00 0.01 0.01 0.01 0.01 0.01 0.02 0.02 0.02 0.01 0.01 0.01 0.01 0.01 0.02 0.01 0.01
0.03 0.04 0.05 0.04 0.03 0.03 0.03 0.05 0.06 0.08 0.08 0.06 0.06 0.05 0.04 0.02 0.02 0.01 0.01 0.01 0.01 0.01 0.01 0.01 0.01 0.01 0.01 0.01 0.01 0.01 0.01 0.01 0.01 0.01 0.02 0.01 0.01 0.01 0.01 0.01 0.01 0.02 0.02
0.04 0.05 0.05 0.04 0.03 0.02 0.02 0.03 0.04 0.04 0.06 0.08 0.09 0.08 0.06 0.06 0.04 0.02 0.02 0.02 0.01 0.01 0.01 0.01 0.00 0.01 0.01 0.01 0.01 0.01 0.01 0.01 0.01 0.02 0.01 0.01 0.01 0.02 0.02 0.02 0.03 0.03 0.02
0.05 0.05 0.04 0.04 0.04 0.04 0.04 0.03 0.03 0.03 0.05 0.06 0.10 0.11 0.10 0.12 0.10 0.05 0.03 0.04 0.02 0.01 0.01 0.00 0.00 0.00 0.00 0.00 0.01 0.01 0.02 0.01 0.02 0.02 0.01 0.01 0.01 0.02 0.03 0.04 0.05 0.04 0.03
0.05 0.05 0.04 0.04 0.04 0.05 0.05 0.04 0.04 0.05 0.05 0.05 0.07 0.09 0.10 0.11 0.08 0.06 0.06 0.07 0.05 0.03 0.02 0.00 0.00 0.00 0.01 0.01 0.01 0.01 0.02 0.01 0.01 0.02 0.03 0.02 0.01 0.01 0.02 0.04 0.05 0.06 0.06
0.03 0.04 0.04 0.05 0.05 0.05 0.05 0.04 0.03 0.04 0.04 0.06 0.08 0.09 0.09 0.08 0.06 0.05 0.05 0.07 0.09 0.08 0.06 0.04 0.01 0.00 0.01 0.01 0.01 0.02 0.01 0.01 0.01 0.01 0.03 0.03 0.01 0.01 0.02 0.02 0.04 0.06 0.07
0.02 0.02 0.02 0.04 0.05 0.04 0.04 0.03 0.03 0.04 0.05 0.05 0.09 0.10 0.09 0.07 0.06 0.05 0.03 0.03 0.04 0.05 0.06 0.07 0.04 0.01 0.01 0.01 0.01 0.01 0.01 0.02 0.02 0.03 0.03 0.02 0.02 0.02 0.01 0.02 0.03 0.05 0.06
0.01 0.01 0.02 0.02 0.03 0.02 0.02 0.02 0.04 0.05 0.05 0.06 0.07 0.07 0.07 0.06 0.05 0.05 0.04 0.03 0.02 0.02 0.03 0.03 0.03 0.02 0.01 0.01 0.00 0.01 0.02 0.02 0.02 0.03 0.04 0.02 0.02 0.02 0.01 0.02 0.03 0.04 0.04
0.01 0.01 0.01 0.01 0.01 0.02 0.02 0.03 0.03 0.04 0.05 0.05 0.06 0.08 0.07 0.06 0.06 0.06 0.06 0.04 0.03 0.03 0.03 0.02 0.02 0.01 0.01 0.01 0.00 0.01 0.02 0.03 0.03 0.02 0.03 0.02 0.02 0.02 0.02 0.02 0.03 0.03 0.03
0.00 0.01 0.01 0.01 0.01 0.02 0.03 0.03 0.03 0.04 0.04 0.04 0.05 0.06 0.07 0.07 0.07 0.06 0.06 0.05 0.04 0.03 0.03 0.03 0.02 0.02 0.01 0.01 0.01 0.01 0.02 0.03 0.02 0.03 0.03 0.02 0.03 0.03 0.02 0.02 0.02 0.03 0.03
0.01 0.01 0.01 0.01 0.01 0.01 0.02 0.03 0.02 0.02 0.02 0.03 0.04 0.04 0.05 0.06 0.06 0.05 0.06 0.06 0.05 0.05 0.04 0.03 0.03 0.03 0.01 0.01 0.02 0.03 0.03 0.02 0.01 0.02 0.02 0.03 0.02 0.02 0.02 0.01 0.02 0.02 0.03
0.02 0.01 0.01 0.02 0.03 0.02 0.02 0.02 0.02 0.02 0.02 0.02 0.03 0.04 0.05 0.07 0.09 0.09 0.09 0.09 0.07 0.06 0.06 0.05 0.04 0.03 0.03 0.02 0.02 0.02 0.03 0.03 0.02 0.01 0.01 0.02 0.02 0.02 0.02 0.01 0.02 0.02 0.03
0.01 0.01 0.01 0.01 0.02 0.02 0.01 0.01 0.01 0.01 0.02 0.03 0.03 0.03 0.04 0.06 0.07 0.09 0.11 0.12 0.10 0.08 0.07 0.07 0.05 0.03 0.03 0.03 0.02 0.02 0.03 0.03 0.02 0.02 0.01 0.01 0.01 0.02 0.01 0.01 0.01 0.01 0.02
0.01 0.00 0.01 0.01 0.01 0.01 0.01 0.01 0.01 0.01 0.01 0.02 0.04 0.04 0.05 0.05 0.06 0.08 0.09 0.10 0.10 0.10 0.09 0.07 0.06 0.06 0.04 0.03 0.03 0.02 0.02 0.03 0.02 0.02 0.01 0.01 0.01 0.01 0.01 0.01 0.01 0.01 0.01
0.01 0.01 0.01 0.01 0.01 0.02 0.02 0.03 0.01 0.00 0.01 0.01 0.01 0.02 0.03 0.05 0.07 0.10 0.10 0.09 0.10 0.10 0.10 0.09 0.07 0.07 0.05 0.04 0.04 0.02 0.02 0.03 0.03 0.02 0.02 0.01 0.01 0.01 0.01 0.01 0.01 0.01 0.01
0.01 0.01 0.01 0.01 0.01 0.01 0.01 0.02 0.01 0.01 0.01 0.01 0.01 0.01 0.01 0.02 0.04 0.07 0.15 0.15 0.12 0.11 0.12 0.11 0.08 0.06 0.05 0.05 0.05 0.05 0.03 0.02 0.02 0.02 0.02 0.02 0.02 0.01 0.02 0.02 0.01 0.01 0.01
0.01 0.01 0.00 0.00 0.00 0.00 0.00 0.00 0.00 0.00 0.01 0.01 0.01 0.00 0.01 0.02 0.03 0.04 0.08 0.12 0.11 0.12 0.13 0.12 0.12 0.10 0.09 0.09 0.08 0.08 0.06 0.04 0.02 0.02 0.02 0.02 0.02 0.02 0.02 0.02 0.03 0.02 0.02
0.01 0.01 0.00 0.00 0.00 0.00 0.00 0.00 0.00 0.00 0.00 0.01 0.01 0.01 0.01 0.02 0.02 0.02 0.04 0.06 0.08 0.09 0.10 0.10 0.10 0.10 0.10 0.10 0.08 0.08 0.08 0.06 0.04 0.04 0.04 0.03 0.02 0.03 0.03 0.03 0.03 0.03 0.02
0.01 0.01 0.01 0.01 0.01 0.00 0.00 0.00 0.00 0.00 0.00 0.01 0.01 0.02 0.02 0.02 0.01 0.01 0.01 0.02 0.04 0.06 0.07 0.08 0.09 0.09 0.09 0.10 0.09 0.09 0.08 0.05 0.03 0.04 0.05 0.03 0.02 0.02 0.02 0.03 0.03 0.03 0.03
0.02 0.02 0.02 0.01 0.01 0.00 0.00 0.00 0.00 0.00 0.00 0.01 0.01 0.03 0.02 0.02 0.02 0.01 0.00 0.01 0.02 0.03 0.05 0.06 0.09 0.10 0.09 0.09 0.09 0.11 0.08 0.05 0.04 0.04 0.04 0.04 0.03 0.02 0.02 0.02 0.02 0.02 0.02
0.02 0.03 0.02 0.01 0.00 0.00 0.00 0.00 0.00 0.00 0.00 0.01 0.02 0.02 0.03 0.02 0.02 0.01 0.00 0.01 0.02 0.03 0.03 0.04 0.07 0.08 0.08 0.08 0.10 0.11 0.09 0.07 0.06 0.04 0.03 0.03 0.04 0.05 0.05 0.03 0.02 0.02 0.03
0.02 0.03 0.02 0.01 0.00 0.00 0.00 0.00 0.00 0.00 0.01 0.01 0.02 0.02 0.02 0.02 0.02 0.02 0.01 0.01 0.01 0.02 0.03 0.05 0.07 0.08 0.08 0.09 0.09 0.09 0.10 0.10 0.09 0.06 0.05 0.04 0.06 0.06 0.07 0.06 0.04 0.04 0.03
0.03 0.03 0.02 0.01 0.00 0.00 0.00 0.00 0.00 0.01 0.01 0.01 0.01 0.02 0.02 0.03 0.02 0.02 0.01 0.01 0.00 0.01 0.02 0.04 0.06 0.07 0.08 0.08 0.09 0.08 0.08 0.09 0.08 0.07 0.07 0.06 0.06 0.07 0.06 0.06 0.05 0.04 0.02
0.04 0.03 0.02 0.01 0.01 0.01 0.01 0.01 0.01 0.01 0.01 0.00 0.00 0.01 0.02 0.02 0.01 0.01 0.01 0.01 0.00 0.00 0.01 0.02 0.04 0.06 0.06 0.07 0.06 0.06 0.06 0.06 0.06 0.06 0.05 0.05 0.06 0.06 0.06 0.05 0.04 0.03 0.02
0.04 0.03 0.03 0.02 0.02 0.01 0.01 0.02 0.01 0.01 0.01 0.01 0.00 0.01 0.01 0.01 0.00 0.00 0.00 0.00 0.00 0.00 0.01 0.02 0.02 0.02 0.03 0.04 0.05 0.05 0.05 0.05 0.04 0.05 0.06 0.06 0.05 0.05 0.04 0.04 0.03 0.02 0.02
0.04 0.03 0.03 0.03 0.03 0.02 0.01 0.02 0.01 0.02 0.01 0.01 0.01 0.00 0.00 0.00 0.00 0.00 0.00 0.00 0.00 0.01 0.01 0.01 0.01 0.01 0.01 0.02 0.03 0.03 0.03 0.03 0.03 0.03 0.03 0.05 0.05 0.05 0.06 0.05 0.03 0.02 0.02
MSLP
1009.80 1010.19 1010.52 1010.77 1010.95 1011.09 1011.23 1011.41 1011.67 1012.01 1012.43 1012.90 1013.37 1013.82 1014.20 1014.51 1014.75 1014.93 1015.10 1015.27 1015.49 1015.76 1016.09 1016.47 1016.88 1017.30 1017.70 1018.07 1018.41 1018.72 1019.01 1019.28 1019.54 1019.77 1019.96 1020.10 1020.17 1020.16 1020.06 1019.88 1019.66 1019.41 1019.17
1009.39 1009.88 1010.31 1010.64 1010.88 1011.05 1011.20 1011.40 1011.67 1012.04 1012.50 1013.01 1013.54 1014.02 1014.44 1014.75 1014.97 1015.13 1015.26 1015.40 1015.60 1015.88 1016.23 1016.64 1017.08 1017.52 1017.94 1018.31 1018.63 1018.91 1019.16 1019.40 1019.64 1019.88 1020.12 1020.32 1020.46 1020.53 1020.51 1020.40 1020.21 1019.98 1019.75
1008.88 1009.49 1010.03 1010.45 1010.76 1010.98 1011.17 1011.38 1011.67 1012.06 1012.54 1013.09 1013.65 1014.17 1014.60 1014.92 1015.14 1015.29 1015.40 1015.53 1015.72 1016.00 1016.35 1016.78 1017.23 1017.68 1018.08 1018.43 1018.71 1018.94 1019.15 1019.36 1019.59 1019.84 1020.12 1020.38 1020.62 1020.78 1020.85 1020.83 1020.71 1020.52 1020.30
1008.34 1009.06 1009.71 1010.23 1010.62 1010.89 1011.11 1011.33 1011.63 1012.02 1012.52 1013.08 1013.66 1014.20 1014.65 1015.00 1015.23 1015.38 1015.50 1015.63 1015.82 1016.09 1016.44 1016.87 1017.32 1017.75 1018.13 1018.44 1018.68 1018.86 1019.02 1019.20 1019.41 1019.68 1019.99 1020.32 1020.64 1020.90 1021.07 1021.14 1021.10 1020.96 1020.77
1007.81 1008.63 1009.38 1009.99 1010.45 1010.77 1011.02 1011.25 1011.54 1011.92 1012.40 1012.96 1013.55 1014.10 1014.58 1014.95 1015.21 1015.38 1015.52 1015.66 1015.86 1016.14 1016.49 1016.90 1017.34 1017.74 1018.09 1018.36 1018.56 1018.70 1018.82 1018.97 1019.17 1019.44 1019.78 1020.16 1020.54 1020.88 1021.14 1021.29 1021.32 1021.25 1021.09
1007.36 1008.25 1009.08 1009.77 1010.28 1010.64 1010.90 1011.13 1011.40 1011.75 1012.21 1012.75 1013.32 1013.88 1014.38 1014.79 1015.08 1015.30 1015.47 1015.64 1015.86 1016.14 1016.49 1016.89 1017.30 1017.68 1018.00 1018.24 1018.40 1018.50 1018.60 1018.72 1018.91 1019.17 1019.52 1019.92 1020.34 1020.73 1021.05 1021.27 1021.36 1021.34 1021.23
1007.04 1007.97 1008.85 1009.58 1010.13 1010.51 1010.76 1010.98 1011.22 1011.53 1011.95 1012.46 1013.02 1013.59 1014.11 1014.54 1014.88 1015.14 1015.36 1015.57 1015.81 1016.10 1016.45 1016.84 1017.23 1017.58 1017.88 1018.09 1018.24 1018.33 1018.40 1018.51 1018.68 1018.92 1019.26 1019.65 1020.07 1020.47 1020.82 1021.07 1021.21 1021.24 1021.17
1006.83 1007.78 1008.68 1009.43 1009.99 1010.37 1010.63 1010.82 1011.03 1011.31 1011.69 1012.17 1012.71 1013.27 1013.80 1014.26 1014.65 1014.96 1015.22 1015.47 1015.73 1016.03 1016.38 1016.75 1017.12 1017.47 1017.75 1017.96 1018.10 1018.19 1018.26 1018.36 1018.51 1018.73 1019.02 1019.38 1019.77 1020.15 1020.48 1020.75 1020.91 1020.98 1020.96
1006.73 1007.66 1008.55 1009.30 1009.86 1010.25 1010.49 1010.67 1010.86 1011.11 1011.46 1011.91 1012.43 1012.98 1013.52 1014.01 1014.42 1014.77 1015.07 1015.35 1015.63 1015.94 1016.28 1016.64 1017.00 1017.33 1017.61 1017.83 1017.99 1018.10 1018.18 1018.28 1018.41 1018.60 1018.84 1019.15 1019.48 1019.81 1020.11 1020.36 1020.53 1020.63 1020.65
1006.68 1007.58 1008.44 1009.18 1009.73 1010.12 1010.37 1010.55 1010.73 1010.97 1011.31 1011.73 1012.24 1012.78 1013.31 1013.81 1014.24 1014.61 1014.93 1015.22 1015.51 1015.81 1016.14 1016.49 1016.84 1017.18 1017.47 1017.71 1017.90 1018.04 1018.14 1018.25 1018.38 1018.53 1018.73 1018.97 1019.23 1019.50 1019.75 1019.97 1020.14 1020.27 1020.33
1006.62 1007.48 1008.31 1009.02 1009.57 1009.97 1010.24 1010.44 1010.64 1010.90 1011.23 1011.65 1012.14 1012.66 1013.19 1013.67 1014.10 1014.47 1014.79 1015.08 1015.36 1015.66 1015.97 1016.31 1016.65 1016.99 1017.30 1017.57 1017.80 1017.98 1018.12 1018.25 1018.38 1018.52 1018.68 1018.86 1019.06 1019.26 1019.46 1019.65 1019.81 1019.95 1020.05
1006.51 1007.33 1008.12 1008.81 1009.36 1009.77 1010.08 1010.33 1010.57 1010.86 1011.21 1011.64 1012.12 1012.62 1013.12 1013.59 1014.00 1014.35 1014.65 1014.92 1015.19 1015.47 1015.77 1016.09 1016.43 1016.77 1017.10 1017.40 1017.67 1017.90 1018.08 1018.25 1018.39 1018.52 1018.66 1018.80 1018.94 1019.09 1019.24 1019.40 1019.56 1019.71 1019.84
1006.32 1007.09 1007.84 1008.51 1009.07 1009.51 1009.87 1010.18 1010.49 1010.82 1011.21 1011.65 1012.12 1012.61 1013.08 1013.51 1013.88 1014.20 1014.48 1014.74 1014.98 1015.24 1015.53 1015.84 1016.18 1016.52 1016.87 1017.20 1017.50 1017.77 1018.00 1018.20 1018.36 1018.51 1018.63 1018.75 1018.86 1018.97 1019.09 1019.22 1019.37 1019.52 1019.68
1006.03 1006.76 1007.47 1008.12 1008.68 1009.16 1009.58 1009.96 1010.34 1010.74 1011.16 1011.62 1012.09 1012.56 1013.00 1013.39 1013.73 1014.03 1014.28 1014.51 1014.75 1015.00 1015.27 1015.58 1015.91 1016.26 1016.61 1016.96 1017.29 1017.59 1017.85 1018.08 1018.27 1018.43 1018.56 1018.67 1018.77 1018.86 1018.96 1019.07 1019.20 1019.35 1019.51
1005.65 1006.34 1007.01 1007.63 1008.20 1008.72 1009.19 1009.64 1010.09 1010.56 1011.03 1011.51 1011.99 1012.44 1012.85 1013.21 1013.52 1013.79 1014.03 1014.26 1014.49 1014.74 1015.01 1015.32 1015.65 1016.00 1016.35 1016.70 1017.04 1017.35 1017.63 1017.87 1018.08 1018.26 1018.40 1018.52 1018.62 1018.70 1018.79 1018.88 1018.99 1019.13 1019.28
1005.20 1005.83 1006.46 1007.07 1007.64 1008.18 1008.71 1009.22 1009.74 1010.26 1010.78 1011.29 1011.77 1012.21 1012.60 1012.95 1013.24 1013.50 1013.74 1013.98 1014.22 1014.49 1014.77 1015.09 1015.42 1015.76 1016.10 1016.44 1016.76 1017.06 1017.34 1017.59 1017.81 1017.99 1018.15 1018.27 1018.38 1018.46 1018.54 1018.62 1018.71 1018.82 1018.94
1004.68 1005.28 1005.87 1006.45 1007.02 1007.58 1008.14 1008.72 1009.29 1009.86 1010.42 1010.95 1011.44 1011.88 1012.27 1012.61 1012.90 1013.17 1013.43 1013.69 1013.97 1014.26 1014.57 1014.89 1015.23 1015.55 1015.87 1016.18 1016.47 1016.74 1017.00 1017.23 1017.44 1017.63 1017.79 1017.92 1018.03 1018.12 1018.19 1018.26 1018.32 1018.40 1018.49
1004.14 1004.70 1005.25 1005.81 1006.37 1006.95 1007.54 1008.15 1008.77 1009.38 1009.97 1010.53 1011.03 1011.48 1011.87 1012.22 1012.53 1012.83 1013.12 1013.42 1013.73 1014.06 1014.40 1014.74 1015.06 1015.37 1015.67 1015.93 1016.17 1016.40 1016.61 1016.82 1017.01 1017.18 1017.35 1017.49 1017.60 1017.69 1017.76 1017.81 1017.86 1017.90 1017.95
1003.58 1004.12 1004.65 1005.19 1005.74 1006.33 1006.94 1007.58 1008.23 1008.88 1009.50 1010.07 1010.59 1011.05 1011.46 1011.83 1012.17 1012.49 1012.83 1013.17 1013.52 1013.88 1014.24 1014.59 1014.91 1015.20 1015.45 1015.67 1015.87 1016.04 1016.21 1016.37 1016.53 1016.70 1016.85 1017.00 1017.12 1017.22 1017.29 1017.33 1017.35 1017.36 1017.38
1003.05 1003.57 1004.09 1004.62 1005.17 1005.76 1006.40 1007.05 1007.73 1008.39 1009.03 1009.63 1010.16 1010.64 1011.07 1011.46 1011.82 1012.18 1012.55 1012.92 1013.31 1013.69 1014.07 1014.42 1014.72 1014.99 1015.21 1015.39 1015.53 1015.66 1015.78 1015.91 1016.05 1016.19 1016.35 1016.49 1016.62 1016.72 1016.80 1016.84 1016.85 1016.84 1016.82
1002.56 1003.08 1003.60 1004.12 1004.68 1005.28 1005.92 1006.60 1007.28 1007.96 1008.61 1009.22 1009.77 1010.27 1010.71 1011.12 1011.51 1011.89 1012.28 1012.67 1013.07 1013.46 1013.84 1014.17 1014.47 1014.70 1014.89 1015.03 1015.14 1015.24 1015.33 1015.43 1015.55 1015.69 1015.84 1015.99 1016.13 1016.24 1016.32 1016.36 1016.37 1016.35 1016.31
1002.14 1002.67 1003.19 1003.72 1004.29 1004.89 1005.53 1006.21 1006.90 1007.58 1008.24 1008.85 1009.41 1009.92 1010.38 1010.80 1011.21 1011.60 1011.99 1012.38 1012.77 1013.15 1013.50 1013.82 1014.09 1014.30 1014.47 1014.59 1014.68 1014.76 1014.84 1014.93 1015.05 1015.18 1015.34 1015.49 1015.64 1015.76 1015.85 1015.90 1015.90 1015.88 1015.83
1001.79 1002.34 1002.87 1003.41 1003.97 1004.57 1005.21 1005.88 1006.56 1007.23 1007.88 1008.50 1009.07 1009.58 1010.05 1010.48 1010.88 1011.26 1011.64 1012.01 1012.37 1012.72 1013.04 1013.32 1013.56 1013.76 1013.91 1014.02 1014.11 1014.20 1014.28 1014.39 1014.51 1014.66 1014.82 1014.98 1015.13 1015.26 1015.35 1015.40 1015.41 1015.38 1015.33
1001.54 1002.10 1002.63 1003.17 1003.72 1004.30 1004.91 1005.55 1006.21 1006.86 1007.50 1008.11 1008.67 1009.19 1009.66 1010.09 1010.49 1010.86 1011.21 1011.54 1011.86 1012.16 1012.43 1012.68 1012.89 1013.06 1013.21 1013.33 1013.44 1013.54 1013.65 1013.78 1013.92 1014.08 1014.25 1014.42 1014.57 1014.70 1014.79 1014.84 1014.85 1014.82 1014.75
1001.40 1001.94 1002.47 1002.98 1003.50 1004.04 1004.61 1005.20 1005.81 1006.43 1007.04 1007.63 1008.19 1008.71 1009.18 1009.61 1009.99 1010.34 1010.66 1010.96 1011.23 1011.47 1011.69 1011.90 1012.08 1012.24 1012.38 1012.52 1012.65 1012.79 1012.94 1013.10 1013.27 1013.44 1013.62 1013.79 1013.93 1014.05 1014.13 1014.17 1014.17 1014.13 1014.07
1001.37 1001.89 1002.37 1002.83 1003.30 1003.77 1004.27 1004.79 1005.34 1005.90 1006.48 1007.04 1007.59 1008.10 1008.58 1009.01 1009.39 1009.72 1010.02 1010.27 1010.49 1010.68 1010.86 1011.02 1011.17 1011.32 1011.47 1011.63 1011.80 1011.98 1012.16 1012.36 1012.56 1012.75 1012.92 1013.08 1013.21 1013.31 1013.37 1013.39 1013.38 1013.34 1013.27
Thickness
5717 5719 5719 5719 5719 5718 5716 5714 5712 5711 5709 5706 5703 5699 5697 5697 5696 5696 5695 5694 5693 5692 5690 5689 5688 5687 5686 5685 5685 5683 5682 5681 5681 5679 5677 5677 5678 5679 5679 5679 5679 5679 5678
5711 5713 5714 5715 5714 5713 5712 5710 5709 5708 5706 5704 5702 5699 5696 5693 5693 5692 5691 5690 5689 5688 5687 5686 5685 5684 5682 5681 5681 5680 5677 5677 5678 5675 5670 5666 5668 5671 5674 5674 5674 5674 5674
5708 5708 5709 5709 5709 5708 5707 5707 5705 5704 5703 5700 5698 5695 5691 5689 5687 5686 5685 5686 5686 5685 5684 5683 5682 5681 5680 5678 5677 5677 5675 5673 5673 5673 5669 5663 5659 5661 5666 5668 5669 5669 5669
5707 5706 5705 5705 5705 5705 5705 5704 5702 5700 5699 5697 5694 5691 5687 5683 5682 5682 5681 5682 5682 5681 5681 5680 5679 5678 5677 5676 5676 5675 5674 5672 5670 5670 5670 5668 5665 5660 5658 5661 5663 5665 5664
5704 5702 5701 5701 5701 5701 5700 5700 5698 5697 5696 5694 5692 5690 5686 5682 5680 5679 5678 5678 5677 5677 5677 5677 5676 5675 5674 5674 5674 5673 5672 5671 5669 5668 5667 5665 5663 5661 5657 5654 5656 5658 5660
5700 5699 5698 5697 5696 5696 5695 5694 5693 5692 5692 5691 5689 5687 5684 5681 5677 5675 5674 5673 5673 5673 5673 5674 5673 5672 5672 5672 5671 5671 5670 5669 5668 5666 5665 5663 5661 5658 5655 5652 5651 5651 5654
5695 5693 5692 5690 5690 5690 5689 5689 5687 5686 5687 5686 5685 5684 5682 5679 5676 5674 5672 5670 5669 5669 5670 5671 5670 5669 5669 5670 5669 5668 5667 5666 5665 5664 5663 5663 5662 5660 5657 5652 5648 5647 5649
5690 5690 5689 5688 5686 5686 5685 5684 5683 5681 5681 5681 5680 5680 5679 5676 5674 5673 5671 5669 5669 5669 5669 5668 5668 5667 5667 5667 5666 5665 5665 5664 5663 5663 5662 5661 5660 5659 5657 5653 5648 5643 5642
5687 5686 5686 5685 5683 5682 5681 5680 5678 5676 5676 5676 5675 5675 5675 5673 5671 5670 5669 5668 5668 5668 5667 5666 5666 5665 5664 5664 5663 5662 5662 5661 5660 5659 5659 5657 5657 5656 5655 5653 5650 5644 5637
5684 5683 5682 5681 5679 5679 5678 5677 5675 5673 5672 5672 5671 5671 5670 5670 5669 5668 5666 5665 5665 5665 5664 5663 5662 5661 5661 5661 5659 5658 5658 5657 5656 5655 5654 5654 5653 5652 5652 5650 5648 5645 5640
5679 5678 5677 5677 5676 5674 5673 5671 5670 5669 5668 5667 5666 5666 5665 5665 5664 5664 5663 5662 5661 5661 5660 5659 5658 5657 5656 5656 5655 5654 5653 5652 5651 5651 5650 5649 5649 5648 5647 5646 5644 5641 5639
5676 5674 5673 5671 5669 5668 5667 5666 5664 5663 5663 5662 5661 5660 5660 5659 5658 5657 5657 5657 5657 5657 5656 5655 5654 5653 5652 5652 5650 5649 5648 5647 5646 5646 5645 5645 5645 5643 5642 5640 5639 5637 5636
5671 5669 5666 5664 5663 5662 5661 5660 5659 5658 5658 5656 5656 5654 5654 5653 5652 5652 5652 5652 5652 5651 5651 5650 5649 5648 5648 5647 5645 5644 5643 5643 5642 5642 5641 5640 5639 5637 5636 5635 5634 5633 5633
5664 5662 5660 5659 5658 5657 5656 5654 5654 5653 5652 5651 5649 5648 5647 5646 5646 5646 5646 5646 5645 5645 5645 5644 5644 5643 5642 5641 5640 5639 5638 5637 5637 5637 5637 5636 5635 5634 5633 5632 5630 5629 5627
5658 5657 5655 5653 5652 5651 5650 5649 5648 5647 5646 5645 5643 5641 5641 5640 5639 5639 5639 5639 5639 5639 5639 5638 5637 5636 5636 5635 5634 5634 5633 5632 5631 5632 5631 5631 5631 5631 5630 5629 5626 5624 5621
5653 5652 5650 5649 5647 5646 5645 5643 5642 5641 5640 5638 5636 5636 5634 5633 5633 5632 5632 5632 5631 5631 5631 5630 5630 5629 5630 5630 5629 5628 5627 5626 5625 5625 5625 5626 5626 5625 5625 5624 5624 5621 5618
5649 5647 5646 5644 5643 5642 5641 5639 5638 5637 5635 5633 5631 5629 5628 5626 5626 5626 5625 5624 5623 5623 5622 5622 5622 5621 5622 5623 5623 5622 5621 5619 5619 5618 5618 5619 5620 5619 5618 5617 5617 5616 5616
5645 5644 5642 5640 5640 5639 5637 5635 5633 5631 5629 5626 5624 5623 5621 5620 5619 5618 5617 5616 5615 5615 5614 5614 5614 5614 5614 5615 5615 5614 5613 5612 5611 5611 5611 5611 5612 5612 5611 5610 5609 5608 5609
5641 5640 5638 5636 5635 5633 5632 5629 5626 5624 5622 5620 5618 5617 5615 5614 5612 5611 5610 5609 5608 5607 5607 5606 5606 5606 5606 5607 5606 5606 5605 5604 5604 5605 5605 5604 5604 5605 5604 5602 5601 5601 5601
5635 5634 5633 5631 5628 5627 5625 5622 5619 5617 5615 5614 5613 5611 5609 5607 5606 5604 5603 5602 5601 5600 5599 5598 5598 5598 5598 5598 5598 5598 5597 5596 5596 5596 5597 5598 5598 5598 5597 5594 5593 5592 5593
5629 5628 5626 5624 5622 5620 5618 5615 5612 5610 5610 5609 5607 5605 5603 5601 5599 5598 5596 5595 5594 5592 5591 5590 5590 5589 5589 5590 5590 5589 5589 5588 5588 5588 5588 5589 5590 5590 5589 5588 5587 5587 5587
5622 5620 5618 5616 5615 5613 5611 5608 5605 5605 5603 5601 5599 5598 5596 5594 5593 5590 5588 5587 5585 5583 5582 5581 5580 5580 5581 5581 5582 5582 5581 5581 5580 5580 5581 5582 5582 5583 5582 5581 5581 5581 5579
5615 5613 5611 5608 5606 5605 5604 5601 5599 5598 5595 5592 5590 5588 5587 5585 5584 5582 5579 5577 5576 5574 5573 5572 5571 5571 5572 5572 5573 5573 5573 5573 5572 5572 5573 5574 5574 5574 5574 5574 5573 5572 5570
5608 5605 5603 5600 5598 5597 5596 5595 5593 5590 5587 5584 5581 5579 5577 5575 5574 5573 5571 5569 5567 5566 5565 5564 5564 5563 5563 5563 5564 5564 5564 5564 5563 5563 5564 5565 5565 5565 5565 5565 5564 5563 5562
5599 5597 5595 5593 5592 5591 5589 5587 5585 5583 5579 5576 5573 5570 5568 5566 5564 5563 5562 5561 5560 5559 5557 5556 5556 5555 5555 5557 5557 5557 5556 5556 5556 5556 5555 5554 5554 5554 5554 5554 5555 5554 5554
5591 5589 5588 5586 5585 5583 5581 5580 5577 5574 5571 5567 5564 5562 5559 5557 5555 5553 5552 5552 5552 5552 5551 5551 5549 5549 5550 5550 5549 5549 5550 5550 5549 5547 5545 5545 5544 5544 5545 5545 5545 5545 5545